Voltar ao catálogo

STARLINK-3959

AtivoComunicaçõesVLEO
NORAD 52564·PAYLOAD·🇺🇸 United States

Lançado May 13, 2022 de Vandenberg Space Force Base

Loading…

Próximas Passagens (próximas 24 horas)

TLE

AtualizadoSource: CelesTrak SupGP

Época: Sep 14, 2026, 21:25 UTC

1 52564C 22051AH  26257.89284722 -.00028511  00000+0 -91678-3 0  2575
2 52564  53.1611   0.5865 0001406  83.2673  37.2497 15.31718206    12

Acompanhe STARLINK-3959 em tempo real com AllMySat

Download on the App Store